FW4334 Weather Reports


Display with metric or nautical units.
time (UTC)temp
F
wind
direction
speed
MPH
gust
MPH
rain 1hr
in
rain 24hr
in
rain mn
in
humidity
%
barometer
mb
20260905141007 82 219 0.0 3.0 0.00 0.01 0.00 91 1015.0
20260905140504 82 39 0.0 3.0 0.00 0.01 0.00 91 1015.0
20260905140003 81 309 0.0 3.0 0.00 0.01 0.00 91 1015.0
20260905135501 81 225 0.0 5.0 0.00 0.01 0.00 91 1015.0
20260905135100 81 199 1.0 5.0 0.00 0.01 0.00 92 1014.9
20260905134607 80 254 0.0 3.0 0.00 0.01 0.00 92 1014.8
20260905134100 80 200 1.0 3.0 0.00 0.01 0.00 92 1014.8
20260905133558 80 289 0.0 2.0 0.00 0.01 0.00 93 1014.9
20260905133059 80 227 0.0 3.0 0.00 0.01 0.00 93 1014.8
20260905132556 79 278 0.0 3.0 0.00 0.01 0.00 94 1014.9
20260905132055 79 280 0.0 2.0 0.00 0.01 0.00 94 1014.8
20260905131558 78 288 1.0 3.0 0.00 0.01 0.00 95 1014.8
20260905131055 78 246 1.0 3.0 0.00 0.01 0.00 95 1014.9
20260905130552 78 271 0.0 0.0 0.00 0.01 0.00 95 1014.9
20260905130055 78 224 0.0 0.0 0.00 0.01 0.00 95 1014.9
20260905125549 77 215 0.0 0.0 0.00 0.01 0.00 95 1014.9
20260905125048 77 215 0.0 0.0 0.00 0.01 0.00 95 1014.9
20260905124547 77 214 0.0 0.0 0.00 0.01 0.00 95 1014.9
20260905124046 76 214 0.0 0.0 0.00 0.01 0.00 95 1015.0
20260905123545 76 214 0.0 2.0 0.00 0.01 0.00 95 1014.9
20260905123044 76 214 0.0 3.0 0.00 0.01 0.00 95 1014.7
20260905122544 76 196 0.0 3.0 0.00 0.01 0.00 95 1014.6
20260905122043 76 198 0.0 0.0 0.00 0.01 0.00 95 1014.6
20260905121543 76 198 0.0 0.0 0.00 0.01 0.00 95 1014.7
20260905121043 76 198 0.0 0.0 0.00 0.01 0.00 95 1014.6
20260905120545 75 198 0.0 0.0 0.00 0.01 0.00 95 1014.3
20260905120042 75 198 0.0 0.0 0.00 0.01 0.00 95 1014.3
20260905115545 75 198 0.0 0.0 0.00 0.01 0.00 95 1014.3
20260905115043 75 198 0.0 0.0 0.00 0.01 0.00 95 1014.1
20260905114613 75 198 0.0 0.0 0.00 0.01 0.00 95 1014.1
20260905114040 75 198 0.0 0.0 0.00 0.01 0.00 95 1014.1
20260905113541 75 198 0.0 0.0 0.00 0.01 0.00 95 1014.1
20260905113040 75 198 0.0 0.0 0.00 0.01 0.00 95 1014.0
20260905112539 75 198 0.0 0.0 0.00 0.01 0.00 95 1014.0
20260905112039 75 198 0.0 0.0 0.00 0.01 0.00 95 1013.9
20260905111548 75 198 0.0 0.0 0.00 0.01 0.00 95 1013.9
20260905111040 75 198 0.0 0.0 0.00 0.01 0.00 95 1013.8
20260905110539 75 198 0.0 0.0 0.00 0.01 0.00 95 1013.6
20260905110038 75 198 0.0 0.0 0.00 0.01 0.00 95 1013.7
20260905105538 75 198 0.0 0.0 0.00 0.01 0.00 95 1013.5
20260905105038 75 198 0.0 0.0 0.00 0.01 0.00 95 1013.6
20260905104537 75 198 0.0 0.0 0.00 0.01 0.00 95 1013.5
20260905104036 75 198 0.0 0.0 0.00 0.01 0.00 95 1013.5
20260905103536 75 198 0.0 0.0 0.00 0.01 0.00 95 1013.4
20260905103036 75 198 0.0 0.0 0.00 0.01 0.00 95 1013.5
20260905102536 75 198 0.0 0.0 0.00 0.01 0.00 95 1013.5
20260905102036 75 198 0.0 0.0 0.00 0.01 0.00 95 1013.5
20260905101536 75 198 0.0 0.0 0.00 0.01 0.00 95 1013.5
20260905101035 75 198 0.0 0.0 0.00 0.01 0.00 95 1013.4
20260905100534 75 198 0.0 0.0 0.00 0.01 0.00 95 1013.5
20260905100041 75 198 0.0 0.0 0.00 0.01 0.00 95 1013.7
20260905095533 75 198 0.0 0.0 0.00 0.01 0.00 95 1013.6
20260905095036 75 198 0.0 0.0 0.00 0.01 0.00 95 1013.8
20260905094533 75 198 0.0 0.0 0.00 0.01 0.00 95 1013.7
20260905094032 75 198 0.0 0.0 0.00 0.01 0.00 95 1013.7
20260905093532 75 198 0.0 0.0 0.00 0.01 0.00 95 1013.6
20260905093032 75 198 0.0 0.0 0.00 0.01 0.00 95 1013.6
20260905092535 75 198 0.0 0.0 0.00 0.01 0.00 94 1013.4
20260905092031 75 198 0.0 0.0 0.00 0.01 0.00 94 1013.3
20260905091532 75 198 0.0 0.0 0.00 0.01 0.00 94 1013.3
20260905091032 75 198 0.0 0.0 0.00 0.01 0.00 94 1013.3
20260905090531 75 198 0.0 0.0 0.00 0.01 0.00 94 1013.4
20260905090030 75 198 0.0 0.0 0.00 0.01 0.00 94 1013.3
20260905085530 75 198 0.0 0.0 0.00 0.01 0.00 94 1013.3
20260905085031 75 198 0.0 0.0 0.00 0.01 0.00 95 1013.2
20260905084529 75 198 0.0 0.0 0.00 0.01 0.00 94 1013.3
20260905084030 75 198 0.0 0.0 0.00 0.01 0.00 94 1013.3
20260905083530 75 198 0.0 0.0 0.00 0.01 0.00 94 1013.2
20260905083029 75 198 0.0 0.0 0.00 0.01 0.00 94 1013.4
20260905082528 75 198 0.0 0.0 0.00 0.01 0.00 94 1013.3
20260905082033 75 198 0.0 0.0 0.00 0.01 0.00 94 1013.4
20260905081529 75 198 0.0 0.0 0.00 0.01 0.00 94 1013.2
20260905081028 75 198 0.0 0.0 0.00 0.01 0.00 94 1013.1
20260905080528 75 198 0.0 0.0 0.00 0.01 0.00 94 1013.1
20260905080027 75 198 0.0 0.0 0.00 0.01 0.00 94 1013.2
20260905075526 75 198 0.0 0.0 0.00 0.01 0.00 94 1013.2
20260905075026 75 198 0.0 0.0 0.00 0.01 0.00 94 1013.3
20260905074534 75 198 0.0 0.0 0.00 0.01 0.00 94 1013.4
20260905074026 75 198 0.0 0.0 0.00 0.01 0.00 94 1013.5
20260905073524 75 198 0.0 0.0 0.00 0.01 0.00 94 1013.4
20260905073033 75 198 0.0 0.0 0.00 0.01 0.00 94 1013.4
20260905072525 75 198 0.0 0.0 0.00 0.01 0.00 94 1013.5
20260905072025 75 198 0.0 0.0 0.00 0.01 0.00 94 1013.5
20260905071525 75 198 0.0 0.0 0.00 0.01 0.00 94 1013.5
20260905071023 75 198 0.0 0.0 0.00 0.01 0.00 94 1013.6
20260905070523 75 198 0.0 0.0 0.00 0.01 0.00 94 1013.7
20260905070022 75 198 0.0 0.0 0.00 0.01 0.00 94 1013.8
20260905065521 75 198 0.0 0.0 0.00 0.01 0.00 94 1013.9
20260905065027 75 198 0.0 0.0 0.00 0.01 0.00 94 1013.9
20260905064521 75 198 0.0 0.0 0.00 0.01 0.00 94 1013.9
20260905064021 75 198 0.0 0.0 0.00 0.01 0.00 94 1013.9
20260905063520 75 198 0.0 0.0 0.00 0.01 0.00 94 1013.9
20260905063020 75 198 0.0 0.0 0.00 0.01 0.00 94 1014.0
20260905062519 75 198 0.0 0.0 0.00 0.01 0.00 94 1014.0
20260905062023 75 198 0.0 0.0 0.00 0.01 0.00 94 1013.9
20260905061519 75 198 0.0 0.0 0.00 0.01 0.00 94 1014.0
20260905061019 75 198 0.0 0.0 0.00 0.01 0.00 94 1014.0
20260905060517 75 198 0.0 0.0 0.00 0.01 0.00 94 1014.1
20260905060018 75 198 0.0 0.0 0.00 0.01 0.00 94 1014.2
20260905055517 75 198 0.0 0.0 0.00 0.01 0.00 94 1014.2
20260905055017 75 198 0.0 0.0 0.00 0.01 0.00 94 1014.3
20260905054516 75 198 0.0 0.0 0.00 0.01 0.00 94 1014.4
20260905054015 75 198 0.0 0.0 0.00 0.01 0.00 94 1014.4
20260905053515 75 198 0.0 0.0 0.00 0.01 0.00 94 1014.5
20260905053015 75 198 0.0 0.0 0.00 0.01 0.00 94 1014.4
20260905052514 75 198 0.0 0.0 0.00 0.01 0.00 94 1014.4
20260905052014 75 198 0.0 0.0 0.00 0.01 0.00 94 1014.3
20260905051513 75 198 0.0 0.0 0.00 0.01 0.00 94 1014.5
20260905051014 75 198 0.0 0.0 0.00 0.01 0.00 94 1014.6
20260905050516 75 198 0.0 0.0 0.00 0.01 0.00 94 1014.5
20260905050016 75 198 0.0 0.0 0.00 0.01 0.00 94 1014.5
20260905045514 75 198 0.0 0.0 0.00 0.01 0.00 94 1014.5
20260905045012 75 198 0.0 0.0 0.00 0.01 0.00 94 1014.5
20260905044512 75 198 0.0 0.0 0.00 0.01 0.00 94 1014.6
20260905044011 75 198 0.0 3.0 0.00 0.01 0.00 94 1014.7
20260905043513 75 198 0.0 3.0 0.00 0.01 0.00 94 1014.6
20260905043010 75 200 0.0 0.0 0.00 0.01 0.00 94 1014.5
20260905042513 75 200 0.0 0.0 0.00 0.01 0.00 94 1014.5
20260905042010 75 200 0.0 0.0 0.00 0.01 0.00 94 1014.5
20260905041510 75 200 0.0 0.0 0.00 0.01 0.00 94 1014.6
20260905041008 75 200 0.0 0.0 0.00 0.01 0.00 94 1014.6
20260905040507 76 202 0.0 0.0 0.00 0.01 0.00 93 1014.5
20260905040006 76 202 0.0 0.0 0.00 0.01 0.00 93 1014.5
20260905035505 76 203 0.0 0.0 0.00 0.01 0.01 93 1014.5
20260905035005 76 205 0.0 0.0 0.00 0.01 0.01 93 1014.7
20260905034505 76 206 0.0 0.0 0.00 0.01 0.01 93 1014.7
20260905034004 76 206 0.0 0.0 0.00 0.01 0.01 93 1014.7
20260905033505 76 206 0.0 0.0 0.00 0.01 0.01 93 1014.7
20260905033013 76 206 0.0 0.0 0.00 0.01 0.01 93 1014.6
20260905032505 76 206 0.0 0.0 0.00 0.01 0.01 94 1014.7
20260905032004 76 206 0.0 0.0 0.00 0.01 0.01 94 1014.9
20260905031505 76 206 0.0 0.0 0.00 0.01 0.01 94 1015.1
20260905031004 76 206 0.0 0.0 0.00 0.01 0.01 94 1015.1
20260905030504 76 206 0.0 0.0 0.00 0.01 0.01 94 1015.2
20260905030006 76 206 0.0 0.0 0.00 0.01 0.01 94 1015.3
20260905025506 76 206 0.0 0.0 0.00 0.01 0.01 93 1015.0
20260905025003 76 206 0.0 0.0 0.00 0.01 0.01 93 1014.9
20260905024505 76 206 0.0 0.0 0.00 0.01 0.01 93 1015.2
20260905024006 76 206 0.0 0.0 0.00 0.01 0.01 93 1015.3
20260905023503 76 206 0.0 0.0 0.00 0.01 0.01 93 1015.2
20260905023014 76 206 0.0 0.0 0.00 0.01 0.01 93 1015.2
20260905022503 76 206 0.0 0.0 0.00 0.01 0.01 93 1015.2
20260905022003 76 222 0.0 0.0 0.00 0.01 0.01 93 1015.3
20260905021503 76 222 0.0 2.0 0.00 0.01 0.01 93 1015.3
20260905021002 76 219 0.0 2.0 0.00 0.01 0.01 93 1015.4
20260905020502 76 221 0.0 2.0 0.00 0.01 0.01 93 1015.4
20260905020002 76 197 0.0 3.0 0.00 0.01 0.01 93 1015.4
20260905015502 76 219 1.0 3.0 0.00 0.01 0.01 93 1015.4
20260905015002 76 165 0.0 0.0 0.00 0.01 0.01 93 1015.4
20260905014501 76 150 0.0 0.0 0.00 0.01 0.01 93 1015.4
20260905014001 76 174 0.0 0.0 0.00 0.01 0.01 93 1015.4
20260905013503 77 178 0.0 0.0 0.00 0.01 0.01 93 1015.3
20260905013003 77 184 0.0 0.0 0.00 0.01 0.01 93 1015.5
20260905012600 77 143 0.0 0.0 0.00 0.01 0.01 93 1015.3
20260905012058 77 144 0.0 3.0 0.00 0.01 0.01 93 1015.3
20260905011604 77 205 0.0 3.0 0.00 0.01 0.01 93 1015.2
20260905011102 77 130 0.0 3.0 0.00 0.01 0.01 93 1015.1
20260905010602 77 144 1.0 3.0 0.01 0.01 0.01 93 1015.0
20260905010057 78 171 0.0 0.0 0.01 0.01 0.01 93 1014.8
20260905005558 78 114 0.0 3.0 0.01 0.01 0.01 93 1014.7
20260905005057 78 118 0.0 3.0 0.01 0.01 0.01 93 1014.7
20260905004558 79 134 0.0 2.0 0.01 0.01 0.01 93 1014.7
20260905004057 79 232 0.0 0.0 0.01 0.01 0.01 93 1014.7
20260905003559 79 232 0.0 0.0 0.01 0.01 0.01 93 1014.7
20260905003057 79 232 0.0 0.0 0.01 0.01 0.01 93 1014.6
20260905002559 79 295 0.0 0.0 0.01 0.01 0.01 93 1014.7
20260905002057 79 296 0.0 0.0 0.01 0.01 0.01 93 1014.7
20260905001606 79 296 0.0 0.0 0.01 0.01 0.01 93 1014.7
20260905001056 79 296 0.0 0.0 0.00 0.00 0.00 93 1014.7
20260905000556 79 296 0.0 0.0 0.00 0.00 0.00 93 1014.6
20260905000112 79 296 0.0 0.0 0.00 0.00 0.00 93 1014.5
20260904235555 79 296 0.0 0.0 0.00 0.00 0.00 93 1014.5
20260904235054 79 296 0.0 0.0 0.00 0.00 0.00 93 1014.5
20260904234554 79 296 0.0 0.0 0.00 0.00 0.00 93 1014.5
20260904234054 79 296 0.0 0.0 0.00 0.00 0.00 93 1014.5
20260904233554 79 296 0.0 0.0 0.00 0.00 0.00 93 1014.5
20260904233056 79 296 0.0 0.0 0.00 0.00 0.00 93 1014.6
20260904232553 80 296 0.0 0.0 0.00 0.00 0.00 93 1014.5
20260904232056 80 296 0.0 0.0 0.00 0.00 0.00 92 1014.6
20260904231558 80 296 0.0 0.0 0.00 0.00 0.00 92 1014.7
20260904231053 80 296 0.0 0.0 0.00 0.00 0.00 93 1014.7
20260904230553 80 296 0.0 0.0 0.00 0.00 0.00 92 1014.6
20260904230052 80 296 0.0 0.0 0.00 0.00 0.00 92 1014.5
20260904225552 80 296 0.0 0.0 0.00 0.00 0.00 92 1014.6
20260904225055 80 296 0.0 0.0 0.00 0.00 0.00 92 1014.5
20260904224556 80 296 0.0 0.0 0.00 0.00 0.00 92 1014.4
20260904224054 80 296 0.0 0.0 0.00 0.00 0.00 92 1014.4
20260904223551 80 296 0.0 0.0 0.00 0.00 0.00 92 1014.6
20260904223055 80 296 0.0 0.0 0.00 0.00 0.00 92 1014.7
20260904222551 80 296 0.0 0.0 0.00 0.00 0.00 92 1014.7
20260904222052 80 296 0.0 0.0 0.00 0.00 0.00 92 1014.7
20260904221551 80 296 0.0 0.0 0.00 0.00 0.00 92 1014.6
20260904221055 80 296 0.0 0.0 0.00 0.00 0.00 92 1014.5
20260904220551 80 296 0.0 0.0 0.00 0.00 0.00 92 1014.7
20260904220110 80 296 0.0 0.0 0.00 0.00 0.00 92 1014.7
20260904215550 80 296 0.0 0.0 0.00 0.00 0.00 92 1014.8
20260904215050 80 296 0.0 0.0 0.00 0.00 0.00 92 1014.6
20260904214550 80 296 0.0 0.0 0.00 0.00 0.00 92 1014.6
20260904214050 80 296 0.0 0.0 0.00 0.00 0.00 91 1014.5
20260904213553 80 296 0.0 0.0 0.00 0.00 0.00 91 1014.4
20260904213050 80 296 0.0 0.0 0.00 0.00 0.00 91 1014.4
20260904212551 81 296 0.0 0.0 0.00 0.00 0.00 91 1014.3
20260904212050 81 296 0.0 0.0 0.00 0.00 0.00 91 1014.3
20260904211557 81 296 0.0 0.0 0.00 0.00 0.00 91 1014.6
20260904211049 81 296 0.0 0.0 0.00 0.00 0.00 91 1014.5
20260904210549 81 300 0.0 0.0 0.00 0.00 0.00 91 1014.5
20260904210100 81 300 0.0 0.0 0.00 0.00 0.00 91 1014.5
20260904205548 81 300 0.0 3.0 0.00 0.00 0.00 91 1014.5
20260904205047 81 300 0.0 3.0 0.00 0.00 0.00 90 1014.4
20260904204550 80 300 1.0 6.0 0.00 0.00 0.00 91 1014.4
20260904204047 80 148 0.0 6.0 0.00 0.00 0.00 90 1014.5
20260904203547 80 183 1.0 4.0 0.00 0.00 0.00 90 1014.7
20260904203047 80 276 1.0 5.0 0.00 0.00 0.00 90 1014.6
20260904202547 81 167 1.0 5.0 0.00 0.00 0.00 90 1014.3
20260904202046 81 127 1.0 3.0 0.00 0.00 0.00 90 1014.3
20260904201547 81 127 1.0 6.0 0.00 0.00 0.00 90 1014.2
20260904201046 81 125 2.0 8.0 0.00 0.00 0.00 90 1014.4
20260904200546 81 122 1.0 8.0 0.00 0.00 0.00 89 1014.0
20260904200045 81 120 1.0 6.0 0.00 0.00 0.00 89 1014.0
20260904195546 81 119 2.0 6.0 0.00 0.00 0.00 89 1014.2
20260904195045 81 115 1.0 6.0 0.00 0.00 0.00 88 1014.3
20260904194553 82 119 2.0 6.0 0.00 0.00 0.00 88 1014.4
20260904194045 82 117 0.0 4.0 0.00 0.00 0.00 89 1014.4
20260904193544 83 121 1.0 7.0 0.00 0.00 0.00 89 1014.3
20260904193045 83 117 1.0 7.0 0.00 0.00 0.00 89 1014.5
20260904192544 83 125 1.0 6.0 0.00 0.00 0.00 87 1014.5
20260904192044 84 124 2.0 4.0 0.00 0.00 0.00 86 1014.4
20260904191548 84 156 0.0 0.0 0.00 0.00 0.00 85 1014.2
20260904191044 84 161 0.0 0.0 0.00 0.00 0.00 86 1014.3
20260904190544 84 161 0.0 0.0 0.00 0.00 0.00 85 1014.6
20260904190043 84 161 0.0 2.0 0.00 0.00 0.00 85 1014.7
20260904185543 85 161 0.0 4.0 0.00 0.00 0.00 84 1014.7
20260904185046 85 194 1.0 4.0 0.00 0.00 0.00 84 1014.6
20260904184547 85 171 1.0 6.0 0.00 0.00 0.00 83 1014.6
20260904184042 86 122 2.0 7.0 0.00 0.00 0.00 81 1014.7
20260904183541 87 106 2.0 7.0 0.00 0.00 0.00 79 1014.8
20260904183042 88 73 3.0 10.0 0.00 0.00 0.00 78 1014.6
20260904182541 89 127 4.0 10.0 0.00 0.00 0.00 78 1014.7
20260904182041 90 125 4.0 8.0 0.00 0.00 0.00 76 1014.8
20260904181549 91 111 0.0 4.0 0.00 0.00 0.00 77 1014.8
20260904181042 91 92 2.0 6.0 0.00 0.00 0.00 76 1014.8
20260904180540 91 99 1.0 6.0 0.00 0.00 0.00 76 1014.7
20260904180038 91 203 1.0 4.0 0.00 0.00 0.00 77 1014.6
20260904175536 91 118 2.0 6.0 0.00 0.00 0.00 77 1014.8
20260904175035 91 119 2.0 6.0 0.00 0.00 0.00 77 1014.9
20260904174557 91 119 1.0 6.0 0.00 0.00 0.00 77 1014.8
20260904174035 91 119 2.0 5.0 0.00 0.00 0.00 76 1014.8
20260904173531 90 196 0.0 6.0 0.00 0.00 0.00 77 1014.9
20260904173035 90 188 1.0 6.0 0.00 0.00 0.00 78 1015.1
20260904172532 90 150 1.0 4.0 0.00 0.00 0.00 76 1015.1
20260904172032 90 114 0.0 2.0 0.00 0.00 0.00 76 1015.1
20260904171532 90 126 0.0 3.0 0.00 0.00 0.00 76 1015.2
20260904171033 91 203 0.0 5.0 0.00 0.00 0.00 75 1015.4
20260904170529 90 184 1.0 10.0 0.00 0.00 0.00 77 1015.4
20260904170028 89 173 2.0 10.0 0.00 0.00 0.00 78 1015.5
20260904165526 89 265 0.0 3.0 0.00 0.10 0.00 81 1015.5
20260904165027 88 126 0.0 2.0 0.00 0.10 0.00 80 1015.5
20260904164526 88 126 0.0 4.0 0.00 0.10 0.00 81 1015.7
20260904164025 88 126 1.0 4.0 0.00 0.10 0.00 81 1015.9
20260904163526 88 192 0.0 3.0 0.00 0.10 0.00 81 1015.8
20260904163026 88 198 1.0 3.0 0.00 0.10 0.00 80 1016.1
20260904162526 88 123 0.0 3.0 0.00 0.10 0.00 80 1016.0
20260904162025 88 120 1.0 3.0 0.00 0.10 0.00 80 1016.1
20260904161525 88 168 0.0 4.0 0.00 0.10 0.00 81 1016.1
20260904161026 88 213 0.0 3.0 0.00 0.10 0.00 81 1016.1
20260904160523 88 124 0.0 0.0 0.00 0.10 0.00 81 1016.1
20260904160023 88 124 0.0 6.0 0.00 0.10 0.00 81 1016.2
20260904155522 88 114 1.0 7.0 0.00 0.23 0.00 81 1016.4
20260904155021 87 191 3.0 7.0 0.00 0.23 0.00 82 1016.5
20260904154520 87 144 1.0 5.0 0.00 0.23 0.00 84 1016.4
20260904154017 86 202 2.0 5.0 0.00 0.23 0.00 85 1016.3
20260904153517 86 124 0.0 3.0 0.00 0.23 0.00 86 1016.3
20260904153020 85 158 0.0 2.0 0.00 0.23 0.00 87 1016.4
20260904152518 85 269 1.0 3.0 0.00 0.23 0.00 87 1016.4
20260904152013 85 205 1.0 3.0 0.00 0.23 0.00 87 1016.3
20260904151514 85 189 1.0 3.0 0.00 0.23 0.00 88 1016.3
20260904151013 84 188 0.0 3.0 0.00 0.23 0.00 88 1016.2
20260904150511 84 187 0.0 3.0 0.00 0.23 0.00 88 1016.2
20260904150011 84 130 0.0 0.0 0.00 0.23 0.00 88 1016.1
20260904145508 84 130 0.0 0.0 0.00 0.35 0.00 89 1016.2
20260904145005 83 130 0.0 2.0 0.00 0.35 0.00 89 1016.2
20260904144506 83 130 0.0 2.0 0.00 0.35 0.00 89 1016.1
20260904144006 83 156 0.0 0.0 0.00 0.35 0.00 89 1016.0
20260904143505 82 157 0.0 0.0 0.00 0.35 0.00 89 1016.0
20260904143003 82 200 0.0 0.0 0.00 0.35 0.00 90 1016.0
20260904142502 82 202 0.0 0.0 0.00 0.35 0.00 90 1016.0
20260904142000 82 203 0.0 0.0 0.00 0.35 0.00 90 1015.9
20260904141601 81 205 0.0 6.0 0.00 0.35 0.00 91 1015.8
20260904141058 81 205 0.0 6.0 0.00 0.35 0.00 91 1015.8